Portada
METAR-TAF:

METAR-TAF

Aeroports :

Batesville, Arkansas, Estats Units d'Amèrica

latitud: 35-44N, longitud: 091-39W, altitud: 141 m

Observació

L'informe es va fer fa 1 hora i 8 minuts, a les 21:56 UTC
Vent 7 kt del Est/Sud-Est
Temperatura 18°C
Humitat 42%
Pressió 1017 hPa
Visibilitat: 16.1 km
Cel clar

METAR: KBVX 152156Z AUTO 12007KT 10SM CLR 18/05 A3002 RMK AO2 RAB2058E09 SLP166 P0000 T01780050

Hora: 18:04 (23:04 UTC)


TAF: manca

Observacions i pronòstics meteorològics de més de 4000 aeroports (METAR i TAF).

Les estacions disponibles són els punts grocs i vermells al mapa.

Posi el ratolí al punt desitjat per veure el nom de l'estació.

Feu clic per veure les observacions i els pronòstics meteorològics.

Per canviar el mapa: feu clic els botons verds amb una creu de color negre per apropar; al botó verd amb un guió per allunyar la imatge; o en les fletxes verdes per a mapes adjacents.


METAR-TAF: